Find Insat 2B

NORAD ID: 22724 Int'l Des: 1993-048 Owner: ISRO Country: IN operational
HEOCIRCULAR

实时位置

正在加载3D地球...

关于 Insat 2B

正在加载描述...

即将过境

Passes for default location (London). Set your location on the main map for personalized predictions.

高度历史

Loading altitude history...

两行轨道根数

1 22724U 93048B 26104.01404867 -.00000150 00000-0 00000+0 0 9990
2 22724 14.4323 3.0814 0013616 218.1886 335.3140 0.99987159119932
Epoch: Apr 14, 2026 • Age: 21 hours

当前状态

高度 35851.2 km
速度 3.07 km/s
星下点 8.77°N, 10.81°W
发射日期 Jul 22, 1993
运行时间 32.7 years
类型 other

技术详情

分类 Payload
质量 1931.00 kg
干质量 916.00 kg
总质量 1931.00 kg
长度 1.70 m
直径 1.90 m
跨度 23.00 m
形状 Box + Pan + Ant
制造商 ISRO
平台类型 I2K
阶段状态 In Orbit
所有者/国家 ISRO/IN

Most Searched